Terug naar catalogus

FLOCK 4H 20

ActiefWetenschapSSO
NORAD 66723·PAYLOAD·🇺🇸 United States

Gelanceerd Nov 28, 2025 vanaf Vandenberg Space Force Base

Loading…

Volgende Passages (komende 24 uur)

TLE

VersSource: CelesTrak SupGP

Epoch: Sep 14, 2026, 12:45 UTC

1 66723C 25276BK  26257.53138889  .00006564  00000+0  28723-3 0  2575
2 66723  97.4142 330.1880 0002600  25.7884 184.5394 15.22119446    18

Volg FLOCK 4H 20 in realtime met AllMySat

Download on the App Store